EW4993 Weather Reports


Display with metric or nautical units.
time (UTC)temp
F
wind
direction
speed
MPH
gust
MPH
rain 1hr
in
rain 24hr
in
rain mn
in
humidity
%
barometer
mb
20260902173037 96 245 4.0 9.0 0.00 0.00 0.00 44 989.4
20260902171533 96 294 1.0 8.0 0.00 0.00 0.00 44 989.7
20260902170006 94 233 2.0 9.0 0.00 0.00 0.00 47 989.9
20260902164503 94 42 1.0 9.0 0.00 0.00 0.00 47 990.1
20260902163042 93 277 3.0 8.0 0.00 0.00 0.00 48 990.2
20260902161545 93 5 1.0 4.0 0.00 0.00 0.00 49 990.3
20260902160024 91 28 4.0 8.0 0.00 0.00 0.00 52 990.3
20260902154525 90 271 3.0 7.0 0.00 0.00 0.00 53 990.4
20260902153021 88 44 1.0 5.0 0.00 0.00 0.00 58 990.4
20260902151514 87 16 1.0 5.0 0.00 0.00 0.00 62 990.4
20260902150009 86 355 0.0 5.0 0.00 0.00 0.00 63 990.5
20260902144506 85 212 0.0 5.0 0.00 0.00 0.00 65 990.5
20260902143002 83 135 0.0 3.0 0.00 0.00 0.00 66 990.6
20260902141603 82 135 1.0 4.0 0.00 0.00 0.00 67 990.5
20260902140038 82 138 0.0 0.0 0.00 0.00 0.00 67 990.6
20260902134539 80 138 0.0 0.0 0.00 0.00 0.00 66 990.4
20260902133028 78 138 1.0 4.0 0.00 0.00 0.00 66 990.4
20260902131517 76 142 0.0 0.0 0.00 0.00 0.00 62 990.1
20260902130016 75 142 0.0 0.0 0.00 0.00 0.00 62 989.9
20260902124515 74 142 0.0 0.0 0.00 0.00 0.00 62 989.6
20260902123013 74 142 0.0 0.0 0.00 0.00 0.00 62 989.5
20260902121512 75 142 0.0 0.0 0.00 0.00 0.00 63 989.5
20260902120010 75 142 0.0 0.0 0.00 0.00 0.00 63 989.5
20260902114509 75 142 0.0 0.0 0.00 0.00 0.00 64 989.6
20260902113110 76 142 0.0 0.0 0.00 0.00 0.00 66 989.4
20260902111554 76 142 0.0 0.0 0.00 0.00 0.00 65 989.4
20260902110055 76 142 0.0 0.0 0.00 0.00 0.00 66 989.4
20260902104553 76 188 0.0 0.0 0.00 0.00 0.00 67 989.4
20260902103050 77 193 0.0 0.0 0.00 0.00 0.00 67 989.3
20260902101550 77 193 0.0 0.0 0.00 0.00 0.00 67 989.1
20260902100049 77 193 0.0 0.0 0.00 0.00 0.00 66 989.2
20260902094554 77 193 0.0 0.0 0.00 0.00 0.00 66 989.1
20260902093047 77 193 0.0 3.0 0.00 0.00 0.00 67 989.1
20260902091528 77 187 0.0 0.0 0.00 0.00 0.00 68 989.2
20260902090025 78 146 0.0 0.0 0.00 0.00 0.00 68 989.3
20260902084514 78 146 0.0 0.0 0.00 0.00 0.00 69 989.4
20260902083006 78 146 0.0 0.0 0.00 0.00 0.00 69 989.5
20260902081554 79 146 0.0 0.0 0.00 0.00 0.00 69 989.5
20260902080048 79 146 0.0 0.0 0.00 0.00 0.00 68 989.6
20260902074530 79 146 0.0 0.0 0.00 0.00 0.00 68 989.7
20260902073029 80 146 0.0 0.0 0.00 0.00 0.00 68 989.9
20260902071516 80 146 0.0 0.0 0.00 0.00 0.00 67 990.0
20260902070016 81 146 0.0 0.0 0.00 0.00 0.00 67 990.0
20260902064523 81 146 0.0 0.0 0.00 0.00 0.00 67 989.9
20260902063017 81 146 1.0 4.0 0.00 0.00 0.00 67 990.0
20260902061519 82 146 3.0 5.0 0.00 0.00 0.00 67 990.0
20260902060014 82 136 3.0 7.0 0.00 0.00 0.00 67 990.1
20260902054517 82 142 2.0 7.0 0.00 0.00 0.00 66 989.9
20260902053013 83 148 2.0 7.0 0.00 0.00 0.00 66 989.8
20260902051559 83 171 5.0 7.0 0.00 0.00 0.00 66 989.9
20260902050053 83 154 3.0 8.0 0.00 0.00 0.00 66 989.8
20260902044541 84 144 4.0 9.0 0.00 0.00 0.00 65 989.8
20260902043103 84 143 4.0 10.0 0.00 0.00 0.00 64 989.8
20260902041558 85 128 6.0 13.0 0.00 0.00 0.00 63 989.9
20260902040040 85 136 7.0 11.0 0.00 0.00 0.00 61 989.8
20260902034546 86 118 2.0 6.0 0.00 0.00 0.00 57 989.6
20260902033041 87 136 4.0 7.0 0.00 0.00 0.00 53 989.3
20260902031541 88 163 4.0 7.0 0.00 0.00 0.00 52 989.0
20260902030037 88 161 5.0 8.0 0.00 0.00 0.00 52 988.8
20260902024520 88 146 4.0 8.0 0.00 0.00 0.00 53 988.5
20260902023020 89 142 3.0 6.0 0.00 0.00 0.00 52 988.3
20260902021502 90 146 2.0 5.0 0.00 0.00 0.00 52 988.0
20260902020001 90 149 3.0 6.0 0.00 0.00 0.00 51 987.8
20260902014555 91 130 1.0 5.0 0.00 0.00 0.00 48 987.6
20260902013055 92 134 3.0 7.0 0.00 0.00 0.00 46 987.5
20260902011551 92 140 4.0 7.0 0.00 0.00 0.00 45 987.3
20260902010052 93 131 3.0 9.0 0.00 0.00 0.00 45 987.3
20260902004550 94 152 6.0 11.0 0.00 0.00 0.00 44 987.3
20260902003123 95 118 4.0 9.0 0.00 0.00 0.00 43 987.4
20260902001545 96 113 4.0 13.0 0.00 0.00 0.00 41 987.5
20260902000045 96 103 6.0 12.0 0.00 0.00 0.00 40 987.4
20260901234527 96 82 6.0 10.0 0.00 0.00 0.00 40 987.4
20260901233027 97 90 2.0 11.0 0.00 0.00 0.00 39 987.4
20260901231514 97 153 1.0 12.0 0.00 0.00 0.00 39 987.4
20260901230016 97 82 6.0 12.0 0.00 0.00 0.00 38 987.4
20260901224512 97 107 5.0 12.0 0.00 0.00 0.00 39 987.5
20260901223011 97 105 5.0 11.0 0.00 0.00 0.00 41 987.6
20260901221510 96 135 3.0 9.0 0.00 0.00 0.00 42 987.6
20260901220013 96 96 4.0 10.0 0.00 0.00 0.00 41 987.7
20260901214508 98 92 6.0 15.0 0.00 0.00 0.00 40 987.6
20260901213006 98 106 1.0 12.0 0.00 0.00 0.00 40 987.6
20260901211554 98 100 7.0 12.0 0.00 0.00 0.00 40 987.7
20260901210110 97 44 3.0 12.0 0.00 0.00 0.00 42 988.0
20260901204547 97 91 6.0 11.0 0.00 0.00 0.00 42 988.3
20260901203046 95 125 0.0 8.0 0.00 0.00 0.00 42 988.5
20260901201543 96 106 3.0 9.0 0.00 0.00 0.00 44 988.8
20260901200041 96 107 4.0 11.0 0.00 0.00 0.00 44 988.9
20260901194539 94 50 6.0 10.0 0.00 0.00 0.00 47 989.1
20260901193041 94 74 7.0 10.0 0.00 0.00 0.00 46 989.3
20260901191534 96 76 6.0 10.0 0.00 0.00 0.00 47 989.4
20260901190021 93 119 4.0 10.0 0.00 0.00 0.00 49 989.6
20260901184521 93 63 2.0 8.0 0.00 0.00 0.00 48 989.9
20260901183016 94 101 4.0 9.0 0.00 0.00 0.00 47 990.0
20260901181512 94 92 0.0 11.0 0.00 0.00 0.00 47 990.3
20260901180008 94 130 4.0 10.0 0.00 0.00 0.00 46 990.6
20260901174505 94 101 2.0 12.0 0.00 0.00 0.00 47 990.8